Flag for Finland Weather past 2 weeks in Vaasa, Finland

48 °F

Partly sunny.

Feels Like: 43 °F
Forecast: 42 / 47 °F
Wind: 14 mph from West

Location: Vaasa Airport

Current Time: Oct 13, 2015 at 4:44:07 PM

Latest Report: Oct 13, 2015 at 4:20 PM

Visibility: N/A

Pressure: 30.27 "Hg

Humidity: 76%

Dew point: 41 °F

Location of VaasaLocation

Historic Weather in Vaasa — Graph


Vaasa temperature yesterday

Maximum temperature yesterday: 52 °F (at 1:50 PM)
Minimum temperature yesterday: 32 °F (at 1:20 AM)
Average temperature yesterday: 41 °F

Past Weeks' High & Low Weather Summary

High59 °F (Oct 2, 1:50 PM)100% (Sep 28, 11:50 PM)30.63 "Hg (Sep 28, 11:50 PM)
Low18 °F (Oct 9, 7:20 AM)40% (Oct 7, 4:20 PM)29.39 "Hg (Oct 2, 1:20 PM)
Average42 °F78%30.23 "Hg
* Reported Sep 28 3:20 PM — Oct 13 3:20 PM, Vaasa, Weather by CustomWeather, © 2015

Note: Actual official high and low records may vary slightly from our data, if they occured in-between our weather recording intervals... More about our weather records


Vaasa weather history for previous 24 hours

Time TempWeatherWind HumidityBarometerVisibility
3:20 PM
Tue, Oct 13
48 °FScattered clouds.20 mph76%30.27 "HgN/A
2:50 PM50 °FPassing clouds.16 mph67%30.27 "HgN/A
2:20 PM50 °FScattered clouds.16 mph71%30.27 "HgN/A
1:50 PM50 °FPassing clouds.16 mph71%30.27 "HgN/A
1:20 PM50 °FPassing clouds.16 mph71%30.27 "HgN/A
12:50 PM50 °FPassing clouds.13 mph71%30.30 "HgN/A
12:20 PM50 °FPassing clouds.12 mph71%30.30 "HgN/A
11:50 AM48 °FPartly sunny.12 mph76%30.30 "HgN/A
11:20 AM46 °FPassing clouds.7 mph87%30.30 "HgN/A
10:50 AM45 °FSunny.7 mph87%30.30 "Hg10 mi
10:20 AM43 °FPassing clouds.5 mph93%30.30 "HgN/A
9:50 AM41 °FSunny.5 mph93%30.30 "Hg10 mi
9:20 AM37 °FSunny.5 mph100%30.30 "Hg10 mi
8:50 AM37 °FFog.6 mph100%30.33 "Hg3 mi
8:20 AM37 °FIce fog.7 mph100%30.33 "Hg1 mi
7:50 AM37 °FFog.5 mph93%30.33 "Hg1 mi
7:20 AM37 °FFog.6 mph93%30.33 "Hg3 mi
6:20 AM37 °FChilly.7 mph93%30.33 "Hg4 mi
5:50 AM37 °FFog.6 mph93%30.33 "Hg2 mi
5:20 AM37 °FFog.5 mph100%30.33 "Hg1 mi
4:50 AM37 °FFog.5 mph93%30.33 "Hg1 mi
4:20 AM37 °FClear.5 mph93%30.33 "Hg10 mi
3:50 AM37 °FPassing clouds.6 mph100%30.33 "HgN/A
3:20 AM37 °FFog.5 mph100%30.33 "Hg1 mi
2:50 AM37 °FIce fog.3 mph100%30.33 "Hg1 mi
2:20 AM37 °FFog.3 mph100%30.33 "Hg1 mi
1:50 AM39 °FClear.3 mph100%30.33 "Hg10 mi
1:20 AM39 °FClear.3 mph100%30.33 "Hg10 mi
12:50 AM39 °FClear.5 mph100%30.33 "Hg10 mi
12:20 AM39 °FPassing clouds.6 mph93%30.33 "HgN/A
11:50 PM
Mon, Oct 12
39 °FPassing clouds.6 mph93%30.33 "HgN/A
11:20 PM39 °FPassing clouds.7 mph93%30.33 "HgN/A
10:50 PM39 °FClear.8 mph93%30.33 "Hg10 mi
10:20 PM39 °FClear.7 mph100%30.36 "Hg10 mi
9:50 PM39 °FPassing clouds.7 mph93%30.36 "HgN/A
9:20 PM39 °FPassing clouds.7 mph93%30.36 "HgN/A
8:50 PM39 °FPassing clouds.6 mph93%30.36 "HgN/A
8:20 PM39 °FClear.6 mph87%30.36 "Hg10 mi
7:50 PM41 °FClear.6 mph87%30.36 "Hg10 mi
7:20 PM43 °FSunny.6 mph81%30.36 "Hg10 mi
6:50 PM45 °FSunny.6 mph76%30.36 "Hg10 mi
6:20 PM45 °FSunny.6 mph76%30.36 "Hg10 mi
5:50 PM48 °FSunny.7 mph66%30.36 "Hg10 mi
5:20 PM48 °FPassing clouds.10 mph66%30.36 "HgN/A
4:50 PM50 °FPassing clouds.12 mph62%30.39 "HgN/A
4:20 PM50 °FPassing clouds.12 mph62%30.39 "HgN/A
Weather by CustomWeather, © 2015

See weather overviewHow to use our weather pages